QPF
0.00 0.00 0.00 0.00 0.00 0.00 0.00 0.00 0.00 0.00 0.00 0.00 0.00 0.00 0.00 0.00 0.00 0.00 0.00 0.00 0.00 0.01 0.01 0.01 0.01 0.00 0.00 0.00 0.00 0.00 0.00 0.00 0.00 0.00 0.00 0.00 0.00 0.00 0.00 0.00 0.01 0.01 0.00
0.00 0.00 0.00 0.00 0.00 0.00 0.00 0.00 0.00 0.00 0.00 0.00 0.00 0.00 0.00 0.00 0.00 0.00 0.00 0.00 0.00 0.00 0.00 0.00 0.00 0.00 0.00 0.00 0.00 0.00 0.00 0.00 0.00 0.00 0.00 0.00 0.00 0.00 0.00 0.00 0.00 0.00 0.00
0.00 0.00 0.00 0.00 0.00 0.00 0.00 0.00 0.00 0.00 0.00 0.00 0.00 0.00 0.00 0.00 0.00 0.00 0.00 0.00 0.00 0.00 0.00 0.00 0.00 0.00 0.00 0.00 0.00 0.00 0.00 0.00 0.00 0.00 0.00 0.01 0.01 0.00 0.00 0.00 0.00 0.00 0.00
0.00 0.00 0.00 0.00 0.00 0.00 0.00 0.00 0.00 0.00 0.00 0.00 0.01 0.01 0.01 0.00 0.00 0.00 0.00 0.00 0.00 0.00 0.00 0.00 0.00 0.00 0.00 0.00 0.00 0.00 0.00 0.00 0.00 0.00 0.00 0.00 0.01 0.01 0.01 0.00 0.00 0.00 0.00
0.00 0.00 0.00 0.00 0.00 0.00 0.00 0.00 0.00 0.00 0.00 0.01 0.01 0.01 0.01 0.00 0.00 0.00 0.00 0.00 0.00 0.00 0.00 0.00 0.00 0.00 0.00 0.00 0.00 0.00 0.00 0.00 0.00 0.00 0.00 0.00 0.01 0.01 0.01 0.00 0.00 0.00 0.00
0.00 0.00 0.00 0.00 0.00 0.00 0.00 0.00 0.00 0.00 0.00 0.01 0.01 0.01 0.00 0.00 0.00 0.00 0.00 0.00 0.00 0.00 0.00 0.00 0.00 0.00 0.00 0.00 0.00 0.00 0.00 0.00 0.00 0.00 0.00 0.00 0.01 0.01 0.02 0.01 0.00 0.00 0.00
0.00 0.00 0.00 0.00 0.00 0.00 0.00 0.00 0.00 0.00 0.00 0.01 0.01 0.00 0.00 0.00 0.00 0.00 0.00 0.00 0.00 0.00 0.00 0.00 0.00 0.00 0.00 0.00 0.00 0.00 0.00 0.00 0.00 0.00 0.00 0.00 0.00 0.01 0.01 0.02 0.01 0.01 0.01
0.00 0.00 0.00 0.00 0.00 0.00 0.00 0.00 0.00 0.00 0.01 0.01 0.01 0.00 0.00 0.00 0.00 0.00 0.00 0.00 0.00 0.00 0.00 0.00 0.00 0.00 0.00 0.00 0.00 0.00 0.00 0.00 0.00 0.00 0.00 0.00 0.00 0.00 0.00 0.00 0.01 0.01 0.01
0.00 0.00 0.00 0.00 0.00 0.00 0.00 0.00 0.00 0.00 0.00 0.01 0.00 0.00 0.00 0.00 0.00 0.00 0.00 0.00 0.00 0.00 0.00 0.00 0.00 0.00 0.00 0.00 0.00 0.00 0.00 0.00 0.00 0.00 0.00 0.00 0.00 0.00 0.00 0.00 0.00 0.00 0.00
0.00 0.00 0.00 0.00 0.00 0.00 0.00 0.00 0.00 0.00 0.00 0.00 0.00 0.00 0.00 0.00 0.00 0.00 0.00 0.00 0.00 0.00 0.00 0.00 0.00 0.00 0.00 0.00 0.00 0.00 0.00 0.00 0.00 0.00 0.00 0.00 0.00 0.00 0.00 0.00 0.00 0.00 0.00
0.00 0.00 0.00 0.00 0.00 0.00 0.00 0.00 0.00 0.00 0.00 0.00 0.00 0.00 0.00 0.00 0.00 0.00 0.00 0.00 0.00 0.00 0.00 0.00 0.00 0.00 0.00 0.00 0.00 0.00 0.00 0.00 0.00 0.00 0.00 0.00 0.00 0.00 0.00 0.00 0.00 0.00 0.00
0.00 0.00 0.00 0.00 0.00 0.00 0.00 0.00 0.00 0.00 0.01 0.01 0.00 0.00 0.00 0.00 0.00 0.00 0.00 0.00 0.00 0.00 0.00 0.00 0.00 0.00 0.00 0.00 0.00 0.00 0.00 0.00 0.00 0.00 0.00 0.00 0.00 0.00 0.00 0.00 0.00 0.00 0.00
0.00 0.00 0.00 0.00 0.00 0.00 0.00 0.00 0.00 0.00 0.00 0.00 0.00 0.00 0.00 0.00 0.00 0.00 0.00 0.00 0.00 0.00 0.00 0.00 0.00 0.00 0.00 0.00 0.00 0.00 0.00 0.00 0.00 0.00 0.00 0.00 0.00 0.00 0.00 0.00 0.00 0.00 0.00
0.00 0.00 0.00 0.00 0.00 0.00 0.00 0.00 0.00 0.00 0.00 0.00 0.00 0.00 0.00 0.00 0.00 0.00 0.00 0.00 0.00 0.00 0.00 0.00 0.00 0.00 0.00 0.00 0.00 0.00 0.00 0.00 0.00 0.00 0.00 0.00 0.00 0.00 0.00 0.00 0.00 0.00 0.00
0.00 0.00 0.00 0.00 0.00 0.00 0.00 0.00 0.00 0.00 0.00 0.00 0.00 0.00 0.00 0.00 0.00 0.00 0.00 0.00 0.00 0.00 0.00 0.00 0.00 0.00 0.00 0.00 0.00 0.00 0.00 0.00 0.00 0.00 0.00 0.00 0.00 0.00 0.00 0.00 0.00 0.00 0.00
0.00 0.00 0.00 0.00 0.00 0.00 0.00 0.00 0.00 0.00 0.00 0.00 0.00 0.00 0.00 0.00 0.00 0.00 0.00 0.00 0.00 0.00 0.00 0.00 0.00 0.00 0.00 0.00 0.00 0.00 0.00 0.00 0.00 0.00 0.00 0.00 0.00 0.00 0.00 0.00 0.00 0.00 0.00
0.00 0.00 0.00 0.00 0.00 0.00 0.00 0.00 0.00 0.00 0.00 0.00 0.00 0.00 0.00 0.00 0.00 0.00 0.00 0.00 0.00 0.00 0.00 0.00 0.00 0.00 0.00 0.00 0.00 0.00 0.00 0.00 0.00 0.00 0.00 0.00 0.00 0.00 0.00 0.00 0.00 0.00 0.00
0.00 0.00 0.00 0.00 0.00 0.00 0.00 0.00 0.00 0.00 0.00 0.00 0.00 0.00 0.00 0.00 0.00 0.00 0.00 0.00 0.00 0.00 0.00 0.00 0.00 0.00 0.00 0.00 0.00 0.00 0.00 0.00 0.00 0.00 0.00 0.00 0.00 0.00 0.00 0.00 0.00 0.00 0.00
0.00 0.00 0.00 0.00 0.00 0.00 0.00 0.00 0.00 0.00 0.00 0.00 0.00 0.00 0.00 0.00 0.00 0.00 0.00 0.00 0.00 0.00 0.00 0.00 0.00 0.00 0.00 0.00 0.00 0.00 0.00 0.00 0.00 0.00 0.00 0.00 0.00 0.00 0.00 0.00 0.00 0.00 0.00
0.00 0.00 0.00 0.00 0.00 0.00 0.00 0.00 0.00 0.00 0.00 0.00 0.00 0.00 0.00 0.00 0.00 0.00 0.00 0.00 0.00 0.00 0.00 0.00 0.00 0.00 0.00 0.00 0.00 0.00 0.00 0.00 0.00 0.00 0.00 0.00 0.00 0.00 0.00 0.00 0.00 0.00 0.00
0.00 0.00 0.00 0.00 0.00 0.00 0.00 0.00 0.00 0.00 0.00 0.00 0.00 0.00 0.00 0.00 0.00 0.00 0.00 0.00 0.00 0.00 0.00 0.00 0.00 0.00 0.00 0.00 0.00 0.00 0.00 0.00 0.00 0.00 0.00 0.00 0.00 0.00 0.00 0.00 0.00 0.00 0.00
0.00 0.00 0.00 0.00 0.00 0.00 0.00 0.00 0.00 0.00 0.00 0.00 0.00 0.00 0.00 0.00 0.00 0.00 0.00 0.00 0.00 0.00 0.00 0.00 0.00 0.00 0.00 0.00 0.00 0.00 0.00 0.00 0.00 0.00 0.00 0.00 0.00 0.00 0.00 0.00 0.00 0.00 0.00
0.00 0.00 0.00 0.00 0.00 0.00 0.00 0.00 0.00 0.00 0.00 0.00 0.00 0.00 0.00 0.00 0.00 0.00 0.00 0.00 0.00 0.00 0.00 0.00 0.00 0.00 0.00 0.00 0.00 0.00 0.00 0.00 0.00 0.00 0.00 0.00 0.00 0.00 0.00 0.00 0.00 0.00 0.00
0.00 0.00 0.00 0.00 0.00 0.00 0.00 0.00 0.00 0.00 0.00 0.00 0.00 0.00 0.00 0.00 0.00 0.00 0.00 0.00 0.00 0.00 0.00 0.00 0.00 0.00 0.00 0.00 0.00 0.00 0.00 0.00 0.00 0.00 0.00 0.00 0.00 0.00 0.00 0.00 0.00 0.00 0.00
0.00 0.00 0.00 0.00 0.00 0.00 0.00 0.00 0.00 0.00 0.00 0.00 0.00 0.00 0.00 0.00 0.00 0.00 0.00 0.00 0.00 0.00 0.00 0.00 0.00 0.00 0.00 0.00 0.00 0.00 0.00 0.00 0.00 0.00 0.00 0.00 0.00 0.00 0.00 0.00 0.00 0.00 0.00
0.00 0.00 0.00 0.00 0.00 0.00 0.00 0.00 0.00 0.00 0.00 0.00 0.00 0.00 0.00 0.00 0.00 0.00 0.00 0.00 0.00 0.00 0.00 0.00 0.00 0.00 0.00 0.00 0.00 0.00 0.00 0.00 0.00 0.00 0.00 0.00 0.00 0.00 0.00 0.00 0.00 0.00 0.00
MSLP
1014.41 1014.42 1014.60 1014.93 1015.37 1015.84 1016.30 1016.69 1016.97 1017.15 1017.25 1017.30 1017.36 1017.45 1017.58 1017.76 1017.97 1018.17 1018.35 1018.49 1018.61 1018.71 1018.82 1018.96 1019.12 1019.29 1019.45 1019.58 1019.65 1019.64 1019.56 1019.44 1019.31 1019.19 1019.13 1019.12 1019.16 1019.23 1019.29 1019.33 1019.33 1019.28 1019.19
1014.08 1014.13 1014.36 1014.74 1015.23 1015.74 1016.23 1016.62 1016.91 1017.10 1017.21 1017.29 1017.39 1017.54 1017.74 1017.99 1018.25 1018.50 1018.70 1018.85 1018.96 1019.05 1019.15 1019.27 1019.42 1019.58 1019.74 1019.86 1019.91 1019.89 1019.79 1019.65 1019.51 1019.39 1019.33 1019.34 1019.39 1019.47 1019.55 1019.60 1019.60 1019.55 1019.47
1013.73 1013.83 1014.10 1014.53 1015.05 1015.60 1016.10 1016.52 1016.82 1017.02 1017.17 1017.29 1017.44 1017.65 1017.91 1018.22 1018.52 1018.80 1019.01 1019.16 1019.25 1019.33 1019.41 1019.51 1019.65 1019.81 1019.96 1020.06 1020.10 1020.07 1019.96 1019.82 1019.67 1019.57 1019.52 1019.53 1019.61 1019.70 1019.79 1019.85 1019.86 1019.81 1019.74
1013.43 1013.57 1013.88 1014.34 1014.88 1015.45 1015.97 1016.40 1016.72 1016.95 1017.13 1017.29 1017.49 1017.75 1018.06 1018.40 1018.73 1019.01 1019.23 1019.37 1019.46 1019.52 1019.59 1019.69 1019.82 1019.97 1020.12 1020.22 1020.25 1020.21 1020.11 1019.97 1019.84 1019.74 1019.71 1019.74 1019.82 1019.92 1020.01 1020.08 1020.09 1020.06 1020.01
1013.21 1013.39 1013.73 1014.21 1014.76 1015.33 1015.85 1016.29 1016.62 1016.87 1017.08 1017.28 1017.51 1017.80 1018.14 1018.49 1018.83 1019.12 1019.33 1019.48 1019.57 1019.64 1019.71 1019.82 1019.96 1020.12 1020.26 1020.37 1020.40 1020.37 1020.27 1020.15 1020.03 1019.95 1019.93 1019.97 1020.05 1020.15 1020.24 1020.29 1020.31 1020.29 1020.26
1013.11 1013.32 1013.68 1014.15 1014.70 1015.25 1015.76 1016.18 1016.52 1016.78 1016.99 1017.21 1017.47 1017.78 1018.12 1018.48 1018.82 1019.11 1019.33 1019.49 1019.60 1019.69 1019.80 1019.93 1020.10 1020.27 1020.43 1020.54 1020.59 1020.56 1020.48 1020.37 1020.27 1020.21 1020.20 1020.24 1020.32 1020.40 1020.47 1020.52 1020.53 1020.52 1020.50
1013.12 1013.34 1013.70 1014.16 1014.68 1015.20 1015.67 1016.07 1016.39 1016.65 1016.87 1017.09 1017.36 1017.66 1018.01 1018.37 1018.71 1019.00 1019.24 1019.42 1019.57 1019.72 1019.87 1020.05 1020.25 1020.46 1020.64 1020.76 1020.81 1020.80 1020.73 1020.65 1020.57 1020.52 1020.52 1020.56 1020.62 1020.68 1020.73 1020.76 1020.75 1020.74 1020.73
1013.17 1013.40 1013.74 1014.17 1014.65 1015.13 1015.56 1015.93 1016.22 1016.46 1016.68 1016.91 1017.18 1017.49 1017.83 1018.18 1018.53 1018.84 1019.10 1019.33 1019.54 1019.74 1019.96 1020.19 1020.44 1020.67 1020.86 1021.00 1021.07 1021.06 1021.01 1020.94 1020.88 1020.85 1020.85 1020.89 1020.94 1020.99 1021.01 1021.01 1021.00 1020.97 1020.97
1013.21 1013.44 1013.75 1014.15 1014.58 1015.01 1015.39 1015.73 1016.00 1016.23 1016.45 1016.69 1016.96 1017.27 1017.62 1017.98 1018.33 1018.66 1018.97 1019.24 1019.51 1019.77 1020.05 1020.33 1020.62 1020.88 1021.09 1021.24 1021.31 1021.32 1021.28 1021.23 1021.19 1021.17 1021.18 1021.22 1021.26 1021.29 1021.30 1021.28 1021.25 1021.21 1021.21
1013.17 1013.38 1013.67 1014.03 1014.42 1014.80 1015.14 1015.45 1015.71 1015.95 1016.18 1016.44 1016.73 1017.06 1017.41 1017.79 1018.16 1018.52 1018.85 1019.17 1019.49 1019.81 1020.14 1020.46 1020.78 1021.06 1021.28 1021.43 1021.51 1021.53 1021.50 1021.47 1021.44 1021.44 1021.46 1021.50 1021.54 1021.56 1021.56 1021.53 1021.49 1021.45 1021.44
1012.99 1013.19 1013.46 1013.79 1014.13 1014.48 1014.80 1015.10 1015.37 1015.63 1015.89 1016.18 1016.51 1016.86 1017.25 1017.64 1018.03 1018.41 1018.77 1019.13 1019.48 1019.84 1020.20 1020.55 1020.88 1021.17 1021.40 1021.55 1021.64 1021.66 1021.65 1021.64 1021.63 1021.64 1021.67 1021.72 1021.76 1021.78 1021.77 1021.74 1021.70 1021.66 1021.65
1012.67 1012.87 1013.12 1013.42 1013.74 1014.06 1014.37 1014.67 1014.97 1015.27 1015.58 1015.93 1016.30 1016.69 1017.10 1017.52 1017.93 1018.33 1018.71 1019.08 1019.45 1019.83 1020.21 1020.57 1020.91 1021.20 1021.43 1021.59 1021.69 1021.73 1021.74 1021.74 1021.75 1021.77 1021.81 1021.86 1021.90 1021.92 1021.91 1021.89 1021.85 1021.82 1021.81
1012.24 1012.43 1012.67 1012.95 1013.24 1013.55 1013.87 1014.19 1014.52 1014.88 1015.25 1015.65 1016.08 1016.52 1016.96 1017.40 1017.83 1018.23 1018.62 1019.01 1019.39 1019.77 1020.15 1020.52 1020.86 1021.16 1021.40 1021.57 1021.69 1021.75 1021.78 1021.80 1021.82 1021.85 1021.89 1021.93 1021.97 1021.99 1021.98 1021.96 1021.94 1021.93 1021.93
1011.77 1011.96 1012.18 1012.43 1012.70 1013.00 1013.32 1013.67 1014.05 1014.45 1014.89 1015.35 1015.83 1016.31 1016.79 1017.25 1017.68 1018.09 1018.49 1018.88 1019.26 1019.65 1020.03 1020.40 1020.75 1021.06 1021.32 1021.52 1021.66 1021.76 1021.82 1021.86 1021.90 1021.93 1021.96 1021.98 1022.00 1022.00 1022.00 1021.98 1021.97 1021.97 1022.00
1011.36 1011.53 1011.72 1011.93 1012.18 1012.46 1012.78 1013.15 1013.57 1014.02 1014.51 1015.01 1015.53 1016.05 1016.54 1017.01 1017.46 1017.88 1018.29 1018.68 1019.08 1019.47 1019.86 1020.25 1020.61 1020.95 1021.23 1021.47 1021.66 1021.80 1021.89 1021.96 1022.00 1022.03 1022.04 1022.04 1022.03 1022.01 1021.99 1021.97 1021.97 1021.99 1022.04
1011.12 1011.24 1011.38 1011.54 1011.74 1012.00 1012.31 1012.68 1013.11 1013.59 1014.11 1014.64 1015.18 1015.71 1016.21 1016.69 1017.15 1017.59 1018.01 1018.43 1018.84 1019.26 1019.67 1020.08 1020.47 1020.84 1021.17 1021.45 1021.69 1021.87 1022.01 1022.11 1022.17 1022.19 1022.18 1022.16 1022.11 1022.06 1022.01 1021.99 1021.99 1022.02 1022.09
1011.12 1011.18 1011.25 1011.33 1011.47 1011.67 1011.95 1012.31 1012.74 1013.22 1013.74 1014.28 1014.81 1015.33 1015.83 1016.32 1016.78 1017.24 1017.69 1018.14 1018.59 1019.04 1019.49 1019.93 1020.35 1020.75 1021.12 1021.45 1021.74 1021.98 1022.17 1022.30 1022.38 1022.41 1022.39 1022.34 1022.26 1022.18 1022.11 1022.06 1022.06 1022.10 1022.19
1011.44 1011.41 1011.37 1011.36 1011.41 1011.55 1011.78 1012.10 1012.51 1012.97 1013.46 1013.97 1014.47 1014.96 1015.45 1015.92 1016.40 1016.88 1017.37 1017.86 1018.35 1018.85 1019.33 1019.80 1020.25 1020.68 1021.08 1021.45 1021.78 1022.07 1022.31 1022.49 1022.61 1022.66 1022.65 1022.59 1022.50 1022.39 1022.30 1022.24 1022.22 1022.26 1022.35
1012.09 1011.95 1011.79 1011.66 1011.61 1011.67 1011.84 1012.11 1012.46 1012.88 1013.32 1013.77 1014.23 1014.67 1015.12 1015.58 1016.06 1016.57 1017.09 1017.62 1018.16 1018.69 1019.20 1019.69 1020.15 1020.59 1021.00 1021.39 1021.76 1022.09 1022.39 1022.62 1022.80 1022.89 1022.91 1022.87 1022.79 1022.68 1022.57 1022.50 1022.47 1022.50 1022.59
1013.03 1012.77 1012.49 1012.24 1012.09 1012.05 1012.14 1012.35 1012.65 1013.00 1013.37 1013.75 1014.13 1014.52 1014.92 1015.35 1015.82 1016.34 1016.89 1017.46 1018.03 1018.58 1019.10 1019.58 1020.03 1020.45 1020.85 1021.24 1021.62 1021.99 1022.33 1022.63 1022.87 1023.03 1023.11 1023.12 1023.07 1022.99 1022.89 1022.82 1022.78 1022.81 1022.88
1014.21 1013.84 1013.43 1013.07 1012.81 1012.69 1012.70 1012.84 1013.07 1013.34 1013.63 1013.93 1014.22 1014.53 1014.86 1015.25 1015.70 1016.21 1016.77 1017.35 1017.93 1018.49 1018.99 1019.44 1019.85 1020.22 1020.58 1020.94 1021.32 1021.70 1022.08 1022.44 1022.76 1023.01 1023.18 1023.27 1023.29 1023.25 1023.19 1023.13 1023.09 1023.11 1023.17
1015.53 1015.05 1014.54 1014.08 1013.73 1013.53 1013.48 1013.55 1013.70 1013.90 1014.10 1014.30 1014.50 1014.71 1014.97 1015.29 1015.70 1016.18 1016.72 1017.29 1017.86 1018.38 1018.84 1019.24 1019.58 1019.88 1020.18 1020.49 1020.83 1021.22 1021.63 1022.04 1022.43 1022.78 1023.05 1023.23 1023.34 1023.38 1023.37 1023.35 1023.33 1023.35 1023.41
1016.87 1016.32 1015.74 1015.21 1014.80 1014.54 1014.43 1014.44 1014.52 1014.63 1014.74 1014.84 1014.93 1015.05 1015.21 1015.45 1015.79 1016.22 1016.71 1017.24 1017.76 1018.23 1018.63 1018.95 1019.21 1019.43 1019.64 1019.89 1020.18 1020.55 1020.96 1021.41 1021.87 1022.30 1022.67 1022.96 1023.16 1023.29 1023.36 1023.39 1023.41 1023.45 1023.51
1018.12 1017.54 1016.92 1016.35 1015.91 1015.62 1015.48 1015.44 1015.46 1015.49 1015.51 1015.50 1015.49 1015.49 1015.54 1015.69 1015.93 1016.28 1016.70 1017.16 1017.61 1018.01 1018.33 1018.57 1018.74 1018.87 1019.01 1019.18 1019.42 1019.74 1020.14 1020.60 1021.10 1021.58 1022.03 1022.41 1022.71 1022.93 1023.09 1023.19 1023.27 1023.35 1023.44
1019.20 1018.63 1018.02 1017.46 1017.02 1016.73 1016.56 1016.49 1016.45 1016.42 1016.35 1016.24 1016.11 1016.00 1015.94 1015.97 1016.10 1016.35 1016.67 1017.04 1017.40 1017.72 1017.96 1018.13 1018.22 1018.27 1018.33 1018.43 1018.60 1018.87 1019.23 1019.68 1020.17 1020.68 1021.17 1021.61 1021.99 1022.30 1022.54 1022.73 1022.89 1023.03 1023.17
1020.07 1019.55 1018.99 1018.48 1018.08 1017.80 1017.64 1017.54 1017.47 1017.37 1017.22 1017.01 1016.78 1016.55 1016.37 1016.28 1016.29 1016.41 1016.63 1016.89 1017.16 1017.39 1017.56 1017.66 1017.69 1017.68 1017.68 1017.71 1017.82 1018.02 1018.32 1018.71 1019.16 1019.65 1020.14 1020.61 1021.04 1021.42 1021.75 1022.03 1022.27 1022.50 1022.71
Thickness
5740 5738 5731 5726 5722 5718 5715 5713 5712 5711 5710 5710 5710 5710 5710 5710 5710 5711 5711 5711 5711 5711 5711 5711 5711 5711 5711 5711 5711 5712 5713 5714 5715 5717 5717 5717 5718 5718 5719 5721 5722 5722 5723
5745 5739 5733 5729 5724 5720 5716 5714 5712 5710 5710 5709 5709 5708 5708 5708 5708 5708 5708 5708 5708 5707 5707 5708 5708 5708 5708 5708 5709 5709 5710 5711 5712 5713 5714 5715 5715 5715 5716 5717 5718 5719 5720
5747 5740 5734 5730 5726 5722 5719 5715 5713 5711 5709 5708 5707 5707 5706 5705 5705 5705 5705 5705 5705 5704 5704 5705 5705 5705 5705 5706 5707 5707 5708 5709 5710 5712 5712 5712 5713 5713 5713 5714 5715 5716 5716
5746 5740 5735 5731 5727 5724 5720 5717 5715 5712 5710 5709 5707 5706 5704 5703 5703 5702 5702 5702 5702 5702 5702 5702 5702 5702 5702 5703 5704 5704 5705 5706 5708 5710 5712 5712 5712 5710 5710 5710 5711 5711 5712
5745 5741 5736 5732 5728 5725 5722 5718 5716 5713 5711 5710 5708 5706 5704 5702 5701 5700 5699 5699 5699 5699 5699 5699 5699 5699 5699 5700 5700 5701 5702 5704 5706 5708 5709 5709 5708 5707 5707 5707 5707 5707 5708
5744 5741 5736 5731 5728 5725 5722 5719 5716 5714 5712 5710 5708 5707 5705 5702 5700 5699 5698 5697 5696 5696 5696 5696 5696 5696 5696 5696 5697 5697 5699 5700 5703 5704 5705 5704 5704 5703 5703 5703 5703 5703 5704
5743 5741 5736 5731 5727 5724 5721 5719 5716 5714 5712 5710 5708 5706 5704 5702 5700 5698 5697 5695 5694 5694 5693 5693 5693 5693 5693 5693 5694 5694 5696 5697 5699 5700 5700 5699 5700 5699 5699 5699 5700 5700 5700
5743 5740 5735 5730 5726 5723 5720 5717 5715 5713 5712 5710 5708 5706 5704 5702 5700 5698 5696 5694 5693 5692 5691 5691 5690 5690 5690 5690 5690 5691 5692 5694 5695 5696 5695 5695 5695 5694 5694 5695 5696 5696 5697
5743 5738 5735 5730 5726 5723 5720 5717 5715 5712 5711 5709 5708 5706 5703 5701 5699 5697 5695 5693 5692 5690 5689 5688 5687 5686 5686 5686 5686 5687 5688 5689 5690 5691 5691 5690 5689 5690 5690 5690 5691 5692 5693
5740 5737 5734 5731 5727 5724 5722 5719 5716 5713 5710 5708 5706 5704 5701 5699 5697 5695 5693 5692 5690 5688 5687 5685 5684 5683 5682 5682 5682 5683 5684 5685 5685 5686 5685 5684 5684 5685 5685 5686 5687 5688 5689
5734 5734 5733 5731 5728 5726 5723 5720 5716 5713 5710 5707 5704 5701 5698 5695 5693 5692 5690 5689 5687 5686 5684 5682 5680 5679 5678 5677 5678 5679 5679 5680 5680 5680 5680 5679 5679 5680 5681 5682 5683 5684 5685
5728 5730 5730 5728 5727 5725 5722 5719 5715 5712 5709 5705 5702 5698 5695 5692 5690 5688 5686 5685 5683 5682 5680 5677 5676 5674 5673 5673 5674 5674 5674 5675 5675 5675 5674 5674 5674 5675 5676 5677 5678 5679 5680
5731 5730 5728 5726 5724 5722 5720 5717 5714 5710 5707 5703 5700 5697 5693 5690 5687 5685 5682 5680 5678 5676 5674 5672 5670 5668 5668 5668 5669 5669 5669 5670 5670 5669 5668 5668 5669 5670 5671 5672 5673 5674 5674
5732 5732 5729 5726 5723 5720 5717 5715 5712 5708 5705 5701 5698 5695 5691 5687 5684 5681 5678 5675 5673 5671 5669 5666 5664 5663 5663 5662 5663 5663 5663 5663 5663 5662 5662 5662 5663 5665 5667 5667 5668 5668 5668
5730 5730 5730 5727 5722 5719 5715 5713 5709 5706 5703 5699 5695 5692 5689 5684 5680 5677 5674 5670 5668 5666 5664 5661 5658 5657 5656 5655 5655 5656 5656 5655 5655 5655 5654 5655 5656 5659 5660 5661 5662 5662 5662
5728 5728 5727 5725 5721 5716 5712 5709 5706 5703 5700 5696 5693 5689 5685 5681 5676 5672 5668 5666 5663 5661 5658 5655 5652 5650 5648 5648 5648 5649 5649 5648 5647 5647 5647 5647 5648 5650 5652 5654 5654 5654 5654
5722 5723 5722 5720 5717 5712 5708 5704 5701 5698 5695 5692 5689 5685 5681 5676 5672 5667 5663 5661 5658 5656 5652 5648 5645 5642 5640 5640 5640 5640 5641 5640 5640 5639 5639 5639 5639 5641 5642 5643 5644 5645 5644
5709 5710 5712 5712 5710 5706 5702 5698 5694 5692 5689 5686 5683 5679 5675 5670 5666 5662 5658 5655 5652 5650 5646 5642 5638 5635 5633 5632 5631 5631 5631 5631 5631 5631 5631 5631 5631 5631 5631 5632 5633 5634 5634
5690 5692 5695 5698 5697 5696 5694 5690 5686 5683 5680 5677 5674 5671 5668 5663 5658 5655 5651 5648 5645 5642 5639 5635 5632 5629 5625 5624 5622 5622 5622 5621 5621 5621 5621 5622 5622 5622 5622 5622 5623 5623 5624
5673 5676 5679 5682 5684 5684 5683 5680 5676 5673 5670 5667 5665 5662 5659 5655 5650 5646 5643 5640 5637 5633 5630 5627 5624 5622 5619 5616 5614 5611 5611 5611 5611 5611 5612 5611 5612 5612 5612 5613 5614 5614 5614
5656 5660 5663 5666 5668 5670 5668 5666 5663 5660 5658 5656 5654 5651 5649 5646 5641 5636 5633 5630 5628 5625 5622 5619 5617 5614 5610 5608 5601 5596 5598 5600 5601 5602 5602 5601 5601 5601 5602 5603 5604 5604 5605
5637 5641 5644 5647 5650 5653 5654 5654 5651 5648 5646 5645 5642 5640 5637 5634 5631 5627 5623 5620 5617 5614 5611 5610 5610 5606 5604 5603 5596 5585 5582 5584 5589 5593 5592 5591 5592 5592 5592 5592 5593 5594 5595
5618 5621 5624 5626 5630 5633 5636 5638 5637 5634 5631 5629 5627 5626 5623 5621 5618 5616 5613 5610 5607 5605 5602 5601 5602 5602 5599 5597 5598 5591 5581 5580 5579 5581 5583 5583 5583 5582 5582 5582 5582 5584 5585
5598 5601 5604 5606 5608 5611 5614 5615 5615 5614 5612 5612 5612 5612 5610 5608 5605 5603 5601 5599 5596 5594 5592 5591 5591 5592 5593 5590 5589 5591 5590 5588 5577 5570 5571 5574 5574 5574 5573 5573 5573 5574 5575
5579 5582 5584 5586 5587 5588 5590 5591 5592 5592 5593 5594 5594 5595 5595 5594 5592 5589 5588 5587 5585 5584 5582 5580 5579 5580 5581 5582 5582 5581 5578 5578 5580 5569 5562 5562 5563 5566 5566 5565 5565 5564 5565
5560 5562 5564 5565 5565 5565 5566 5567 5568 5568 5571 5572 5573 5574 5576 5577 5576 5575 5574 5572 5572 5571 5571 5569 5569 5568 5568 5570 5571 5573 5573 5569 5569 5569 5561 5555 5554 5556 5558 5558 5557 5555 5555